EW9798 Weather Reports


time (UTC)temp
C
wind
direction
speed
KPH
gust
KPH
rain 1hr
cm
rain 24hr
cm
rain mn
cm
humidity
%
barometer
mb
20260503184529 23 327 3.2 9.7 0.00 0.00 0.00 54 1014.3
20260503181557 22 308 1.6 6.4 0.00 0.00 0.00 54 1014.6
20260503180105 22 332 1.6 8.0 0.00 0.00 0.00 53 1014.8
20260503174530 21 298 0.0 3.2 0.00 0.00 0.00 54 1014.9
20260503173030 21 316 0.0 6.4 0.00 0.00 0.00 56 1015.1
20260503171530 20 10 0.0 6.4 0.00 0.00 0.00 59 1015.2
20260503120105 8 135 1.6 4.8 0.00 0.00 0.00 95 1015.6
20260503100109 10 135 3.2 8.0 0.00 0.00 0.00 92 1015.5
20260503081529 12 157 0.0 0.0 0.00 0.00 0.00 89 1015.3
20260503071529 12 135 0.0 6.4 0.00 0.00 0.00 85 1015.4
20260503054531 13 145 1.6 4.8 0.00 0.00 0.00 80 1015.3
20260503053034 14 135 1.6 6.4 0.00 0.00 0.00 78 1015.2
20260503050028 15 172 3.2 8.0 0.00 0.00 0.00 77 1015.1
20260503044535 15 132 4.8 6.4 0.00 0.00 0.00 76 1014.9
20260503043032 15 113 6.4 8.0 0.00 0.00 0.00 76 1014.8
20260503041531 16 106 3.2 6.4 0.00 0.00 0.00 76 1014.5
20260503040035 17 26 0.0 6.4 0.00 0.00 0.00 74 1014.3
20260503034531 17 127 6.4 9.7 0.00 0.00 0.00 73 1013.8
20260503033037 18 125 6.4 9.7 0.00 0.00 0.00 73 1013.6
20260503024610 20 66 1.6 4.8 0.00 0.00 0.00 70 1012.8
20260503023031 21 96 0.0 3.2 0.00 0.00 0.00 69 1012.7
20260503021528 22 112 3.2 6.4 0.00 0.00 0.00 67 1012.6
20260503020109 24 360 0.0 0.0 0.00 0.00 0.00 62 1012.4
20260503013032 25 360 0.0 0.0 0.00 0.00 0.00 60 1012.4
20260503011532 25 360 0.0 3.2 0.00 0.00 0.00 56 1012.4
20260503010034 25 360 0.0 3.2 0.00 0.00 0.00 52 1012.3
20260503004537 25 3 3.2 9.7 0.00 0.00 0.00 51 1012.3
20260503003113 26 360 6.4 11.3 0.00 0.00 0.00 49 1012.2
20260503001531 27 288 3.2 8.0 0.00 0.00 0.00 43 1012.3
20260502234532 27 295 1.6 9.7 0.00 0.00 0.00 38 1012.7
20260502233032 27 236 1.6 8.0 0.00 0.00 0.00 38 1012.9
20260502231530 26 266 0.0 4.8 0.00 0.00 0.00 41 1013.0
20260502230034 26 304 1.6 6.4 0.00 0.00 0.00 43 1013.2
20260502224607 26 253 3.2 11.3 0.00 0.00 0.00 46 1013.4
20260502223027 26 294 1.6 8.0 0.00 0.00 0.00 49 1013.6
20260502221532 25 286 1.6 8.0 0.00 0.00 0.00 53 1013.9
20260502220031 23 334 3.2 9.7 0.00 0.00 0.00 56 1014.2
20260502214532 23 329 0.0 9.7 0.00 0.00 0.00 57 1014.4
20260502213029 23 273 1.6 9.7 0.00 0.00 0.00 57 1014.6
20260502211608 23 284 0.0 3.2 0.00 0.00 0.00 56 1014.9
20260502204528 22 303 1.6 6.4 0.00 0.00 0.00 60 1015.1
20260502201607 18 341 0.0 6.4 0.00 0.00 0.00 70 1015.5
20260502200029 17 140 1.6 4.8 0.00 0.00 0.00 73 1015.8
20260502194532 17 303 6.4 11.3 0.00 0.00 0.00 74 1015.7
20260502191531 18 334 4.8 9.7 0.00 0.00 0.00 69 1016.3
20260502190030 19 329 4.8 11.3 0.00 0.00 0.00 70 1016.6